Voltar ao catálogo

COSMOS 1275 DEB

AtivoPO
NORAD 12719·DEBRIS·🇷🇺 Russia

Lançado Jun 4, 1981 de Plesetsk Cosmodrome

Loading…

Próximas Passagens (próximas 24 horas)

TLE

AtualizadoSource: Space-Track

Época: Sep 14, 2026, 12:40 UTC

1 12719U 81053BL  26257.52819537  .00000358  00000-0  25539-3 0  9992
2 12719  82.9621 332.0896 0023911  93.1318 329.7732 13.94666772282020

Acompanhe COSMOS 1275 DEB em tempo real com AllMySat

Download on the App Store